• In Hungary
  • List of Countries
  • For 7 days
  • Water Temperature
  • Satellite Maps
  • Weather Map
  • News
  • Weather Widgets
  • user-avatar
    Login

    Hourly Weather Lyczana

    Today, 18 October, Thursday

    Time Temperature Precipitation Wind Pressure Humidity
    00:00 +13°C° 0 mm 1 mps 734 mmHg 57%
    01:00 +12°C° 0 mm 0 mps 733 mmHg 57%
    02:00 +12°C° 0 mm 0 mps 733 mmHg 58%
    03:00 +12°C° 0 mm 0 mps 733 mmHg 58%
    04:00 +11°C° 0 mm 0 mps 733 mmHg 59%
    05:00 +12°C° 0 mm 0 mps 733 mmHg 59%
    06:00 +12°C° 0 mm 0 mps 733 mmHg 60%
    07:00 +12°C° 0 mm 0 mps 733 mmHg 60%
    08:00 +15°C° 0 mm 1 mps 733 mmHg 56%
    09:00 +16°C° 0 mm 1 mps 733 mmHg 52%
    10:00 +19°C° 0 mm 1 mps 733 mmHg 48%
    11:00 +20°C° 0 mm 1 mps 733 mmHg 47%
    12:00 +20°C° 0 mm 1 mps 733 mmHg 45%
    13:00 +21°C° 0 mm 1 mps 733 mmHg 43%
    14:00 +20°C° 0 mm 1 mps 732 mmHg 48%
    15:00 +19°C° 0 mm 1 mps 732 mmHg 52%
    16:00 +18°C° 0 mm 1 mps 732 mmHg 56%
    17:00 +16°C° 0 mm 1 mps 732 mmHg 59%
    18:00 +16°C° 0 mm 1 mps 732 mmHg 62%
    19:00 +15°C° 0 mm 1 mps 732 mmHg 65%
    20:00 +14°C° 0 mm 1 mps 733 mmHg 66%
    21:00 +14°C° 0 mm 1 mps 733 mmHg 68%
    22:00 +14°C° 0 mm 1 mps 733 mmHg 69%
    23:00 +13°C° 0 mm 1 mps 733 mmHg 71%

    Tomorrow, 19 October, Friday

    Time Temperature Precipitation Wind Pressure Humidity
    00:00 +13°C° 0 mm 1 mps 733 mmHg 73%
    01:00 +12°C° 0 mm 1 mps 733 mmHg 74%
    02:00 +12°C° 0 mm 1 mps 733 mmHg 74%
    03:00 +13°C° 0 mm 1 mps 733 mmHg 75%
    04:00 +13°C° 0 mm 1 mps 733 mmHg 75%
    05:00 +12°C° 0 mm 1 mps 733 mmHg 76%
    06:00 +12°C° 0 mm 1 mps 733 mmHg 77%
    07:00 +12°C° 0 mm 1 mps 733 mmHg 79%
    08:00 +14°C° 0 mm 1 mps 734 mmHg 75%
    09:00 +15°C° 0 mm 2 mps 734 mmHg 71%
    10:00 +16°C° 0 mm 2 mps 734 mmHg 67%
    11:00 +17°C° 0.1 mm 2 mps 734 mmHg 65%
    12:00 +17°C° 0.1 mm 2 mps 734 mmHg 63%
    13:00 +18°C° 0.1 mm 3 mps 734 mmHg 61%
    14:00 +17°C° 0 mm 2 mps 734 mmHg 63%
    15:00 +17°C° 0 mm 2 mps 734 mmHg 66%
    16:00 +16°C° 0 mm 2 mps 734 mmHg 68%
    17:00 +15°C° 0 mm 2 mps 734 mmHg 71%
    18:00 +15°C° 0 mm 2 mps 735 mmHg 73%
    19:00 +14°C° 0 mm 2 mps 735 mmHg 76%
    20:00 +13°C° 0 mm 2 mps 735 mmHg 78%
    21:00 +13°C° 0 mm 2 mps 735 mmHg 81%
    22:00 +12°C° 0 mm 2 mps 736 mmHg 83%
    23:00 +12°C° 0 mm 2 mps 736 mmHg 86%

    Day after tomorrow, 20 October, Saturday

    Time Temperature Precipitation Wind Pressure Humidity
    00:00 +11°C° 0 mm 1 mps 736 mmHg 89%
    01:00 +10°C° 0 mm 1 mps 736 mmHg 92%
    02:00 +10°C° 0 mm 1 mps 736 mmHg 93%
    03:00 +10°C° 0 mm 1 mps 736 mmHg 94%
    04:00 +10°C° 0 mm 1 mps 736 mmHg 95%
    05:00 +10°C° 0 mm 1 mps 737 mmHg 94%
    06:00 +10°C° 0 mm 1 mps 737 mmHg 94%
    07:00 +10°C° 0 mm 2 mps 737 mmHg 93%
    08:00 +10°C° 0 mm 2 mps 738 mmHg 89%
    09:00 +12°C° 0 mm 2 mps 738 mmHg 86%
    10:00 +12°C° 0 mm 2 mps 738 mmHg 83%
    11:00 +13°C° 0 mm 2 mps 738 mmHg 76%
    12:00 +13°C° 0 mm 3 mps 738 mmHg 70%
    13:00 +13°C° 0 mm 3 mps 738 mmHg 64%
    14:00 +13°C° 0 mm 3 mps 738 mmHg 64%
    15:00 +13°C° 0 mm 2 mps 738 mmHg 64%
    16:00 +13°C° 0 mm 2 mps 738 mmHg 64%
    17:00 +12°C° 0 mm 2 mps 738 mmHg 67%
    18:00 +10°C° 0 mm 2 mps 738 mmHg 70%
    19:00 +9°C° 0 mm 2 mps 739 mmHg 73%
    20:00 +9°C° 0 mm 2 mps 739 mmHg 76%
    21:00 +8°C° 0 mm 2 mps 739 mmHg 79%
    22:00 +7°C° 0 mm 2 mps 739 mmHg 82%
    23:00 +7°C° 0 mm 2 mps 739 mmHg 84%

    21 October, Sunday

    Time Temperature Precipitation Wind Pressure Humidity
    00:00 +7°C° 0 mm 2 mps 739 mmHg 86%
    01:00 +6°C° 0 mm 2 mps 739 mmHg 87%
    02:00 +6°C° 0 mm 2 mps 739 mmHg 87%
    03:00 +6°C° 0 mm 2 mps 739 mmHg 86%
    04:00 +7°C° 0 mm 2 mps 739 mmHg 86%
    05:00 +7°C° 0 mm 2 mps 739 mmHg 85%
    06:00 +7°C° 0 mm 2 mps 739 mmHg 84%
    07:00 +7°C° 0 mm 3 mps 739 mmHg 83%
    08:00 +7°C° 0 mm 3 mps 739 mmHg 80%
    09:00 +8°C° 0 mm 3 mps 739 mmHg 76%
    10:00 +9°C° 0 mm 3 mps 740 mmHg 73%
    11:00 +9°C° 0 mm 3 mps 739 mmHg 70%
    12:00 +10°C° 0 mm 3 mps 739 mmHg 66%
    13:00 +10°C° 0 mm 3 mps 739 mmHg 63%
    14:00 +10°C° 0 mm 3 mps 738 mmHg 64%
    15:00 +10°C° 0 mm 3 mps 738 mmHg 66%
    16:00 +9°C° 0 mm 2 mps 738 mmHg 68%
    17:00 +9°C° 0 mm 2 mps 738 mmHg 72%
    18:00 +8°C° 0 mm 2 mps 738 mmHg 76%
    19:00 +7°C° 0 mm 2 mps 738 mmHg 80%
    20:00 +7°C° 0 mm 2 mps 738 mmHg 80%
    21:00 +7°C° 0 mm 2 mps 738 mmHg 81%
    22:00 +7°C° 0 mm 2 mps 738 mmHg 81%
    23:00 +7°C° 0 mm 2 mps 738 mmHg 83%

    22 October, Monday

    Time Temperature Precipitation Wind Pressure Humidity
    00:00 +7°C° 0 mm 1 mps 738 mmHg 84%
    01:00 +7°C° 0 mm 1 mps 737 mmHg 86%
    02:00 +7°C° 0 mm 1 mps 737 mmHg 87%
    03:00 +6°C° 0 mm 1 mps 737 mmHg 89%
    04:00 +6°C° 0 mm 1 mps 737 mmHg 90%
    05:00 +6°C° 0 mm 1 mps 737 mmHg 90%
    06:00 +5°C° 0 mm 0 mps 737 mmHg 91%
    07:00 +5°C° 0 mm 0 mps 737 mmHg 91%
    08:00 +6°C° 0 mm 0 mps 737 mmHg 82%
    09:00 +9°C° 0 mm 1 mps 738 mmHg 74%
    10:00 +11°C° 0 mm 1 mps 738 mmHg 65%
    11:00 +11°C° 0 mm 1 mps 737 mmHg 60%
    12:00 +12°C° 0 mm 1 mps 737 mmHg 55%
    13:00 +13°C° 0 mm 1 mps 737 mmHg 49%
    14:00 +12°C° 0 mm 1 mps 736 mmHg 53%
    15:00 +11°C° 0 mm 1 mps 736 mmHg 57%
    16:00 +11°C° 0 mm 1 mps 736 mmHg 61%
    17:00 +9°C° 0 mm 1 mps 736 mmHg 66%
    18:00 +8°C° 0 mm 1 mps 736 mmHg 72%
    19:00 +7°C° 0 mm 1 mps 736 mmHg 77%
    20:00 +7°C° 0 mm 1 mps 736 mmHg 79%
    21:00 +7°C° 0 mm 1 mps 736 mmHg 81%
    22:00 +7°C° 0 mm 1 mps 736 mmHg 83%
    23:00 +7°C° 0.3 mm 1 mps 735 mmHg 84%

    23 October, Tuesday

    Time Temperature Precipitation Wind Pressure Humidity
    00:00 +7°C° 0.3 mm 1 mps 735 mmHg 86%
    01:00 +8°C° 0.3 mm 1 mps 735 mmHg 87%
    02:00 +7°C° 0.5 mm 2 mps 734 mmHg 89%
    03:00 +7°C° 0.5 mm 2 mps 734 mmHg 90%
    04:00 +7°C° 0.5 mm 2 mps 733 mmHg 92%
    05:00 +7°C° 0.3 mm 2 mps 733 mmHg 91%
    06:00 +7°C° 0.3 mm 2 mps 732 mmHg 91%
    07:00 +7°C° 0.3 mm 2 mps 732 mmHg 91%
    08:00 +7°C° 0.1 mm 2 mps 731 mmHg 88%
    09:00 +7°C° 0.1 mm 2 mps 731 mmHg 84%
    10:00 +7°C° 0.1 mm 2 mps 730 mmHg 81%
    11:00 +8°C° 0 mm 2 mps 730 mmHg 78%
    12:00 +8°C° 0 mm 2 mps 729 mmHg 74%
    13:00 +8°C° 0 mm 2 mps 729 mmHg 71%
    14:00 +8°C° 0 mm 2 mps 728 mmHg 72%
    15:00 +9°C° 0 mm 1 mps 728 mmHg 73%
    16:00 +8°C° 0 mm 1 mps 727 mmHg 74%
    17:00 +8°C° 0.1 mm 1 mps 727 mmHg 77%
    18:00 +8°C° 0.1 mm 1 mps 727 mmHg 80%
    19:00 +7°C° 0.1 mm 1 mps 727 mmHg 82%
    20:00 +7°C° 0.4 mm 1 mps 727 mmHg 84%
    21:00 +7°C° 0.4 mm 1 mps 727 mmHg 86%
    22:00 +6°C° 0.4 mm 1 mps 726 mmHg 88%
    23:00 +6°C° 0.2 mm 1 mps 726 mmHg 88%
    Show more